User: anonymous   Login
Location: Unspecified
(58.9933°N, 5.6375°E)
Time: 21:37:53
(UTC+01:00)
Language:

Cosmos 2058 - Orbit

View from above orbital plane
View from above orbital plane
View from above satellite
View from above satellite

Ground track
Ground track

The orbit data is extracted from the following two-line orbital elements,

1 20465U 90010A   18054.37783946  .00000230  00000-0  17279-4 0  9997
2 20465  82.4915   6.3122 0015858 163.0574 197.1181 14.97676127522934
Epoch (UTC): 23 February 2018 09:04:05
Eccentricity: 0.0015858
inclination: 82.4915°
perigee height: 563 km
apogee height: 585 km
right ascension of ascending node: 6.3122°
argument of perigee: 163.0574°
revolutions per day: 14.97676127
mean anomaly at epoch: 197.1181°
orbit number at epoch: 52293

The dashed part of the orbit path shows where the satellite is in the earth's shadow,  

DLR